Theta_e
304 304 304 303 303 304 304 304 305 305 306 306 309 310 311 319 324 320 319 318 320 327 328 328 331 332 334 334 333 331 331 331 332 330 332 333 332 334 334 335 337 337 335
303 303 302 302 302 301 301 302 303 303 305 307 308 309 310 311 319 320 320 318 320 321 325 330 331 331 333 331 329 329 331 332 332 332 334 333 333 336 336 338 337 336 333
301 301 300 300 300 300 300 300 302 303 303 303 304 309 310 312 312 318 319 318 319 322 324 327 329 329 331 331 331 333 334 333 333 334 332 332 333 334 335 336 337 336 334
299 300 299 299 299 299 299 299 299 300 301 302 303 306 308 310 314 315 317 318 319 320 322 326 327 328 329 330 330 331 330 328 329 330 331 330 329 331 334 335 335 335 334
299 299 299 299 299 300 300 299 299 300 301 303 303 305 305 306 309 313 315 315 318 319 321 323 326 328 329 330 330 330 330 330 327 327 330 330 330 330 333 334 335 333 332
299 299 299 300 300 300 300 300 300 300 300 300 301 302 303 305 306 308 311 313 316 319 322 322 325 328 329 330 330 331 331 330 328 328 328 329 330 331 332 333 331 329 331
298 299 300 300 301 301 301 301 301 300 300 301 303 303 304 304 304 307 308 311 313 318 319 322 324 327 329 328 329 330 331 331 329 328 329 329 330 330 331 330 330 328 326
299 300 300 300 300 301 301 301 301 301 300 300 301 303 303 303 305 306 310 311 313 318 320 322 326 326 326 327 327 327 329 330 328 327 328 329 329 331 332 331 330 327 326
299 299 299 300 300 301 301 302 302 301 301 300 301 302 303 304 305 308 310 311 316 317 319 322 324 325 325 326 327 326 327 327 327 327 329 329 330 328 330 329 327 327 329
298 298 298 299 300 301 302 303 303 302 301 301 300 301 303 305 309 311 312 315 317 318 319 322 323 325 325 325 325 326 326 324 328 328 327 327 326 325 323 321 324 329 328
297 297 298 299 300 302 301 303 302 302 301 301 301 302 303 305 307 310 314 316 316 318 319 321 323 324 325 324 325 324 325 325 326 323 322 321 321 324 324 324 324 324 327
296 297 297 299 300 302 301 301 302 302 301 301 302 304 305 306 308 311 316 315 315 318 318 319 324 325 326 324 324 324 323 323 320 320 319 319 321 324 325 323 322 321 322
295 296 297 299 302 302 301 301 301 301 301 302 303 306 307 309 311 315 315 315 316 315 319 321 322 323 320 323 324 321 322 322 322 321 320 321 323 324 323 321 320 320 326
294 296 298 300 303 303 302 301 301 302 303 303 305 306 308 312 314 315 316 314 317 318 320 321 311 315 319 317 318 320 319 319 317 315 314 314 315 318 321 324 329 328 329
294 295 297 299 302 304 303 302 301 301 302 302 303 304 305 310 314 314 313 314 318 318 311 311 311 311 312 313 313 313 313 313 312 312 317 324 325 327 330 330 328 328 327
294 295 297 299 303 304 304 304 303 302 303 304 305 303 309 311 314 313 312 315 318 320 313 313 311 312 313 312 310 311 313 316 318 320 321 324 323 324 326 329 329 328 326
294 295 297 299 302 305 305 306 305 304 306 306 307 311 314 313 313 310 313 318 319 320 314 313 313 312 311 311 311 314 314 316 317 318 318 319 320 323 327 328 329 328 326
292 294 294 297 302 305 305 306 306 306 306 307 307 309 314 314 315 308 314 319 316 318 315 313 312 311 311 312 315 316 316 316 315 316 317 318 319 322 325 326 327 327 326
291 291 292 295 297 299 303 305 305 305 306 307 306 307 311 314 315 316 315 314 313 312 313 313 313 312 312 313 316 314 313 313 313 314 315 317 320 321 324 324 326 327 326
289 289 290 292 293 294 296 299 303 304 304 305 306 305 305 309 313 314 315 315 313 312 313 313 312 312 312 312 315 314 313 313 312 313 314 316 317 321 323 323 324 323 324
287 288 288 289 289 290 292 293 295 297 300 303 304 304 305 305 307 310 314 315 315 314 314 313 313 313 313 314 314 314 312 313 312 314 315 316 319 322 322 323 323 323 325
285 286 286 287 287 288 288 289 290 292 294 296 299 302 304 304 304 305 307 309 311 313 315 315 315 315 316 315 315 314 313 313 313 313 314 316 316 317 320 323 323 324 324
283 284 284 285 285 285 286 287 287 288 290 291 293 295 296 300 302 304 305 305 307 308 310 312 314 315 316 316 316 316 315 315 316 314 313 313 313 313 312 313 318 323 323
282 282 282 282 283 283 284 284 285 285 287 288 289 290 291 293 295 297 301 305 306 306 308 309 311 313 315 316 316 316 316 316 315 314 313 313 313 313 312 311 312 320 323
281 281 281 281 282 282 282 283 283 283 284 285 286 287 288 289 290 291 294 299 303 306 306 307 309 310 312 312 312 315 316 315 315 314 313 313 313 312 311 311 311 317 322
281 280 280 280 281 281 281 281 282 282 282 283 283 284 285 286 287 287 289 291 294 300 304 307 309 309 309 311 312 312 312 312 313 312 312 312 312 311 311 312 314 319 323
Wind_Speed
26 26 26 28 29 29 29 30 30 32 34 35 33 31 28 30 31 30 28 27 26 27 29 31 34 34 34 31 30 29 28 30 14 28 29 29 28 28 25 21 19 18 13
23 25 27 27 27 27 28 30 32 32 29 28 29 31 32 29 31 32 30 29 28 27 28 33 33 32 36 31 29 29 29 29 28 19 20 19 22 24 23 21 20 16 13
23 23 25 26 26 27 27 27 28 28 30 32 32 31 30 29 30 32 33 31 31 29 30 33 34 35 34 31 31 29 28 26 24 12 12 13 18 20 21 20 20 16 15
22 21 23 24 26 28 30 29 29 32 33 32 31 31 28 28 29 29 30 31 32 31 31 35 36 37 36 33 34 34 36 31 26 23 15 14 13 25 25 21 17 18 16
22 24 25 26 26 26 26 27 28 28 31 31 33 32 31 33 33 31 30 29 33 29 29 32 38 41 41 42 39 35 33 28 25 24 21 12 17 20 20 22 20 18 17
24 25 25 25 26 28 29 29 29 28 29 32 33 34 33 33 34 39 40 32 29 26 27 31 39 43 46 49 52 46 42 33 22 18 17 19 25 30 28 26 20 8 4
23 23 25 27 28 29 31 31 30 30 29 30 30 28 29 32 35 37 42 42 31 29 27 33 37 36 39 44 53 55 44 39 39 34 31 31 31 30 31 26 24 19 10
24 25 27 29 31 32 31 32 31 29 27 28 30 28 29 32 34 36 41 44 34 29 30 35 32 28 33 37 35 36 36 40 42 34 34 34 34 38 34 36 34 23 14
24 26 29 30 31 32 33 34 30 26 25 27 28 28 28 30 33 34 35 33 28 27 28 33 28 28 31 36 32 27 24 25 30 36 35 31 28 22 33 32 24 17 4
25 29 31 31 31 31 33 29 24 23 25 25 26 27 26 29 30 29 23 23 19 24 25 22 30 34 36 38 31 28 24 25 29 27 24 20 24 31 32 29 29 18 9
29 31 32 32 31 27 29 26 22 21 21 22 24 24 28 30 27 24 23 18 20 20 13 19 25 36 37 41 41 35 29 31 27 28 24 23 29 31 27 22 24 23 16
29 30 31 30 29 26 25 24 21 20 20 19 20 23 22 26 24 22 17 19 25 20 11 17 14 24 36 46 40 27 31 36 31 24 26 24 26 26 24 21 18 18 15
29 29 30 30 27 25 23 21 20 17 15 14 18 18 20 21 22 17 15 18 20 22 14 14 11 17 35 38 33 35 41 33 30 24 22 24 23 21 18 16 14 14 14
26 28 27 27 26 26 24 20 17 14 13 15 16 15 18 16 17 15 13 16 13 6 6 4 15 27 30 29 37 37 35 33 31 26 24 20 19 20 19 18 19 22 19
25 25 24 25 26 26 24 18 15 15 14 18 19 18 18 16 14 15 16 11 13 18 22 21 20 21 23 25 27 28 25 24 24 25 26 23 22 22 20 22 23 21 11
23 22 25 25 23 23 23 19 18 12 20 23 28 23 25 14 14 18 13 12 14 16 21 20 15 16 22 19 21 24 25 26 27 27 25 24 20 18 17 16 21 19 15
22 23 25 23 22 21 23 17 11 21 20 26 22 16 8 6 13 13 17 27 19 10 16 11 15 16 16 17 22 21 20 19 23 24 25 24 22 19 17 14 15 16 10
25 23 25 24 23 21 21 19 14 14 14 20 24 19 14 11 16 8 24 33 21 16 17 15 15 17 21 24 23 23 20 20 18 17 17 18 21 21 16 13 12 13 11
25 25 27 24 23 24 22 22 18 16 16 18 25 31 21 14 16 26 21 18 17 13 15 16 19 22 25 21 22 24 23 19 17 15 14 13 16 19 16 14 12 11 13
24 27 27 24 24 24 23 22 21 19 18 16 17 21 30 23 14 18 22 24 14 11 11 17 21 23 23 19 19 22 19 17 15 13 12 11 9 12 16 15 12 10 10
25 26 28 25 25 24 23 22 22 21 20 20 19 22 26 20 22 23 21 17 14 9 8 10 9 11 15 16 18 22 20 16 13 13 12 10 9 9 11 12 9 8 7
25 26 26 25 25 26 25 23 23 22 22 21 22 24 26 21 20 18 17 15 9 5 4 2 3 5 9 14 19 22 19 15 13 12 12 13 13 12 7 6 7 8 8
26 26 26 25 25 25 26 25 24 25 23 24 24 23 25 23 20 19 21 16 13 10 6 2 5 5 6 8 11 14 16 16 13 12 13 11 9 6 5 4 2 8 10
26 26 25 26 26 25 25 24 24 25 24 24 24 25 24 24 24 23 20 20 18 14 12 8 4 7 8 7 9 10 11 12 12 10 11 12 7 2 6 8 7 9 9
25 26 26 26 26 26 26 24 24 24 23 22 23 24 25 25 25 27 25 20 17 18 17 15 8 7 10 7 4 8 11 11 12 12 13 12 9 9 11 12 11 9 10
24 24 25 26 26 26 26 26 26 25 24 24 24 23 23 24 24 26 25 24 20 17 17 18 14 17 15 10 9 9 9 10 11 12 12 12 13 12 13 13 11 10 12
Wind_Direction
328 326 323 321 317 312 306 303 300 297 295 288 285 287 288 276 263 262 254 252 251 247 248 246 246 244 236 233 227 220 226 226 226 229 254 268 249 241 229 218 208 208 218
325 321 318 316 312 307 301 295 292 290 292 290 285 279 277 281 272 265 262 257 253 249 243 238 241 243 242 227 219 213 211 216 217 232 221 254 240 232 220 208 206 210 219
319 313 305 298 294 294 295 294 293 286 289 287 288 280 269 267 272 265 265 265 259 251 249 241 237 238 238 233 229 219 203 198 198 187 182 240 244 263 230 219 216 212 218
302 297 294 293 291 287 289 292 296 296 293 289 282 268 269 269 266 263 262 263 259 254 251 250 244 236 232 225 206 190 175 176 174 188 188 222 262 256 238 212 206 213 216
301 300 292 290 291 291 291 290 291 291 290 283 280 270 271 268 264 260 259 269 258 258 263 258 252 241 230 218 205 200 199 194 188 183 193 173 189 221 209 208 199 204 212
299 293 298 300 303 299 294 292 285 282 284 282 276 270 268 264 261 257 258 269 272 268 264 270 259 247 234 222 219 215 206 208 207 203 203 198 196 209 195 186 176 159 196
297 302 308 304 299 297 295 288 282 279 282 283 284 265 266 271 270 264 261 260 273 270 266 264 257 242 235 223 223 221 223 227 222 222 205 204 201 204 190 181 177 177 176
312 312 308 310 305 300 296 288 281 275 277 282 283 274 272 274 271 267 261 248 266 268 268 259 245 237 231 220 215 216 221 230 229 217 210 202 201 202 196 193 187 182 174
313 311 310 304 303 303 298 294 282 274 278 280 285 275 273 278 279 271 268 240 261 261 265 247 239 225 213 211 202 194 200 198 204 206 205 205 205 206 198 181 168 155 142
312 309 307 305 303 304 308 309 293 279 279 284 285 281 285 283 284 278 277 259 252 256 259 263 238 221 208 206 191 176 180 179 184 185 192 194 194 189 186 188 177 162 135
312 310 308 304 304 305 315 313 300 290 287 290 290 279 280 281 284 275 285 269 253 256 265 255 215 210 201 198 189 178 183 179 175 170 165 172 177 171 173 177 186 188 172
314 310 307 308 307 310 314 316 309 299 296 297 294 291 289 290 281 281 283 280 269 245 281 292 226 207 203 196 181 181 171 163 164 158 156 165 170 171 172 176 181 191 197
314 309 310 312 308 308 308 309 305 301 298 304 300 298 292 292 297 283 270 299 274 242 270 276 252 202 180 178 181 173 165 155 156 152 150 160 171 173 175 179 184 192 199
312 312 314 319 313 318 310 305 307 309 325 319 317 317 317 298 295 303 280 294 235 207 287 103 138 140 152 156 155 155 152 156 158 153 152 147 148 153 161 173 174 174 163
319 318 322 322 317 320 316 317 313 319 320 311 314 309 307 307 304 295 285 261 167 148 126 137 128 129 134 126 129 135 135 139 141 141 139 141 145 149 151 163 162 160 147
328 328 326 321 323 322 324 331 347 333 317 315 320 311 313 293 303 299 261 206 163 147 123 136 123 133 128 136 132 129 132 132 134 137 139 141 140 143 147 156 163 160 157
338 335 334 332 330 329 333 349 345 345 320 328 341 342 335 318 347 331 173 160 145 154 123 125 134 136 143 138 135 136 138 140 140 143 147 146 143 142 137 140 162 169 155
351 349 347 341 342 344 348 357 6 343 332 344 4 4 19 15 0 63 153 140 129 154 150 145 140 146 143 133 136 134 131 132 132 133 134 143 149 145 140 145 154 164 167
356 356 352 351 353 356 353 354 354 357 1 2 7 14 8 12 11 54 83 90 108 125 149 152 162 159 139 132 139 138 133 130 129 131 130 132 150 153 149 147 154 163 169
0 1 5 2 359 2 1 358 355 356 357 2 5 4 8 11 16 35 45 57 71 113 154 169 170 157 147 145 148 152 139 131 123 123 125 127 135 162 160 154 151 164 183
3 4 8 8 6 4 3 3 1 359 357 355 0 1 7 19 14 18 29 33 39 58 91 126 154 154 146 149 154 161 158 144 131 125 121 125 126 139 158 155 156 159 157
10 9 9 9 5 5 6 6 6 4 0 359 358 358 6 20 17 22 27 30 17 27 42 83 151 123 143 155 162 164 163 157 141 135 124 114 104 97 118 156 170 183 185
14 13 11 9 9 8 8 8 9 6 2 1 360 3 5 1 5 2 350 354 7 17 15 334 244 226 181 179 171 174 175 176 170 168 164 154 132 97 54 39 226 207 206
16 15 13 10 8 9 9 6 4 7 6 3 3 360 2 358 356 356 358 337 339 333 339 346 349 249 241 212 208 206 205 196 193 194 193 192 189 282 315 315 295 237 217
19 18 15 12 9 5 3 5 5 4 4 6 2 359 356 356 357 356 355 349 333 319 315 315 313 316 272 260 232 216 216 202 208 211 198 203 236 268 282 283 275 245 219
20 20 17 15 11 8 4 1 0 1 0 360 358 358 357 355 353 351 350 347 342 327 313 304 300 293 295 275 241 226 213 204 198 212 230 245 256 262 266 259 249 239 219